Theta_e
271 271 271 271 272 272 271 271 271 272 272 272 271 271 271 272 271 271 271 272 271 272 271 271 271 271 272 273 272 273 274 273 273 272 272 273 272 271 271 270 268 266 267 270 273 272 272 273 274 273 274 274 275 276 277 278 279 279 279 279 279 280 281
270 271 271 271 271 271 271 271 271 272 272 271 270 271 271 270 270 270 270 271 271 271 271 271 270 270 271 271 270 271 272 273 273 273 272 272 271 271 270 271 269 268 267 266 270 271 272 272 273 272 275 274 274 274 276 277 277 278 279 279 279 280 280
270 270 270 270 270 271 271 271 271 271 271 270 270 270 270 270 270 270 270 270 270 271 271 270 270 270 270 271 270 270 270 271 271 271 271 270 271 270 271 272 271 269 267 267 268 271 271 271 272 272 272 273 274 275 276 275 276 277 278 279 279 280 280
270 270 270 269 270 270 270 270 270 270 271 270 270 269 269 269 269 269 269 270 270 271 270 270 269 270 270 270 269 269 270 270 270 270 270 270 270 270 270 271 271 271 269 268 267 269 270 271 271 271 273 273 274 274 274 274 275 277 277 278 279 279 279
270 269 269 269 269 269 269 270 270 270 270 270 270 269 269 268 268 268 268 269 270 271 270 270 270 270 270 270 269 269 269 269 269 269 270 269 270 270 270 271 271 271 270 269 267 268 270 271 271 272 272 273 272 273 274 275 275 275 276 277 278 278 279
269 269 269 269 269 269 269 269 269 269 269 269 269 269 269 268 268 268 268 268 268 269 270 270 270 270 270 270 269 269 269 269 269 269 269 269 269 270 270 270 270 270 270 269 269 269 268 270 269 270 270 271 272 272 271 273 274 275 276 276 276 277 278
268 269 269 269 269 269 269 269 269 269 269 269 269 268 267 267 267 268 268 268 268 269 269 269 269 269 270 269 269 269 269 269 268 268 268 268 268 269 269 269 269 269 269 269 268 268 269 269 270 271 269 271 272 272 272 271 271 271 274 276 276 275 277
268 269 269 269 268 268 269 268 268 269 269 268 268 267 267 267 266 267 267 268 268 269 269 269 269 269 269 269 269 269 269 269 268 269 268 269 269 269 268 268 269 268 268 268 268 268 268 269 269 270 271 272 272 270 270 272 271 270 271 273 275 276 276
268 268 268 268 268 268 268 268 267 268 268 267 267 266 266 266 266 266 266 267 267 268 269 269 269 269 269 270 271 271 271 270 270 269 268 269 269 268 268 268 268 268 268 268 268 268 269 269 269 269 269 269 269 268 268 271 272 271 272 273 274 275 277
268 268 267 267 267 267 267 267 267 268 270 269 267 266 265 266 266 266 266 266 267 268 268 268 268 269 270 270 271 271 271 272 272 272 270 270 269 269 268 268 267 268 268 268 267 268 268 267 267 268 269 269 270 272 272 271 272 270 272 273 272 273 275
267 267 267 266 266 266 266 266 267 269 270 271 271 267 265 265 265 266 266 266 266 267 267 268 268 268 269 269 270 270 271 272 273 273 273 273 272 272 269 268 267 267 268 268 268 268 268 268 268 269 270 270 270 271 271 271 271 271 271 270 270 269 273
266 266 266 266 266 265 265 266 268 269 270 271 271 271 267 265 265 265 265 265 266 266 267 267 267 268 268 268 269 269 270 271 272 273 274 274 274 274 274 273 270 269 268 268 268 268 268 268 268 269 270 270 270 271 271 271 271 271 270 270 270 271 271
266 266 266 265 265 265 265 265 268 270 270 271 271 271 270 268 266 266 266 266 266 266 266 267 267 268 268 269 270 270 269 269 270 272 274 274 275 275 275 275 275 274 271 271 269 269 269 269 270 269 270 271 271 272 270 271 271 270 271 270 270 271 272
265 265 265 265 264 264 264 264 267 269 270 271 271 271 271 269 268 266 266 267 267 267 267 267 267 268 268 269 270 270 270 270 270 270 271 272 272 273 274 276 277 276 275 273 271 270 269 271 271 270 271 272 272 271 270 270 270 271 271 270 270 272 272
265 265 264 264 264 264 263 264 267 268 269 270 271 271 271 269 268 268 268 267 268 268 268 268 268 268 269 270 271 271 271 271 271 271 271 271 271 272 273 274 274 275 275 274 273 272 272 272 273 272 273 273 272 271 272 272 272 272 272 272 273 273 274
265 264 264 264 263 263 263 263 267 268 269 270 270 271 268 268 268 268 268 268 269 269 269 270 270 270 270 270 271 273 275 274 273 272 271 271 271 272 273 273 276 277 278 277 275 273 273 273 274 275 273 273 273 272 272 272 273 273 272 272 271 269 272
264 264 264 263 263 262 262 262 265 268 269 270 270 270 267 267 267 267 268 268 269 269 270 270 271 271 271 272 272 274 276 277 276 272 271 271 271 272 272 273 274 277 279 279 279 279 278 277 277 278 278 278 277 274 273 272 270 270 271 270 269 270 271
264 264 264 263 263 262 262 262 264 267 268 269 270 269 267 267 267 267 267 268 269 269 270 271 272 273 272 272 273 275 276 277 277 275 273 272 271 271 271 272 273 273 275 278 279 280 280 279 279 278 279 279 279 278 276 272 269 271 272 270 270 270 271
263 263 263 263 262 264 262 262 263 266 267 268 269 268 267 267 266 266 267 268 268 270 270 271 273 273 273 273 274 276 277 278 278 276 275 274 272 271 271 273 274 273 273 273 273 275 276 277 278 278 278 277 278 279 278 274 273 273 272 270 271 271 271
263 262 262 263 262 262 262 262 262 263 266 267 269 270 268 267 266 266 267 268 268 269 270 271 272 274 275 276 277 277 278 278 278 277 276 275 273 272 272 275 274 274 274 273 273 273 274 275 276 277 278 278 278 278 278 277 275 274 274 272 272 272 272
262 262 262 262 262 261 261 261 261 262 265 267 268 269 270 267 267 267 267 268 268 269 270 271 272 273 275 276 277 278 278 278 278 278 277 276 275 275 276 277 276 276 276 275 274 273 273 274 274 275 276 277 277 278 278 278 277 275 275 274 273 273 273
261 261 260 261 261 261 261 261 261 261 263 266 268 269 270 268 268 268 268 268 269 270 271 272 273 274 276 277 277 278 278 278 278 278 277 277 278 278 279 278 278 278 277 276 275 275 274 273 273 274 274 275 276 277 277 278 278 278 276 276 276 275 273
260 259 259 260 260 260 260 260 261 262 261 264 267 268 270 271 270 271 270 269 269 270 271 273 274 275 276 276 277 277 277 277 278 277 277 278 278 278 279 279 278 278 277 276 275 274 273 273 273 273 274 275 275 276 277 277 278 278 278 277 277 277 277
259 259 258 258 259 259 260 260 260 261 263 263 266 268 270 271 272 272 270 270 270 271 272 273 274 275 276 276 276 277 277 277 277 277 277 278 278 278 278 278 277 276 276 276 275 274 274 274 274 274 274 275 276 277 277 276 277 277 278 278 277 277 277
259 258 258 258 258 258 259 260 260 260 262 264 265 268 269 271 272 273 273 271 272 273 273 274 275 275 275 276 276 276 276 276 276 277 277 277 277 278 277 276 276 275 275 274 274 275 275 275 276 276 276 277 277 277 277 276 276 276 277 278 278 278 277
259 258 258 258 258 258 260 260 261 262 263 265 266 267 269 271 272 272 273 273 273 274 274 275 275 275 275 275 275 275 275 275 275 276 276 277 277 276 276 275 275 275 274 274 274 274 274 276 277 277 277 277 277 275 274 275 274 274 274 275 275 275 276
258 258 258 257 258 259 260 260 261 263 264 264 265 266 268 269 271 273 273 272 273 273 273 273 274 274 274 275 275 275 275 275 275 275 275 274 274 274 274 274 274 274 274 274 274 274 274 276 277 278 277 276 274 274 274 275 274 274 274 274 274 274 273
258 258 258 258 259 259 260 261 262 263 264 265 266 267 268 269 270 270 270 271 271 272 272 272 273 273 273 273 273 273 273 273 274 273 273 273 273 272 272 273 274 274 274 274 274 274 274 275 275 275 276 275 275 275 275 275 274 274 274 274 273 272 272
259 259 260 260 260 260 260 261 262 264 267 267 269 268 269 269 269 270 270 271 272 271 271 271 271 271 271 271 271 270 271 271 271 271 271 270 271 271 272 272 272 272 272 272 272 272 272 273 274 274 275 276 275 275 275 276 274 274 274 274 274 272 273
260 260 260 260 261 262 262 263 265 268 269 270 270 271 271 271 271 271 271 271 272 272 270 269 269 269 269 269 269 269 269 269 270 270 270 270 271 270 271 271 271 271 271 271 271 271 271 272 272 273 273 274 275 275 276 276 275 274 274 273 273 272 273
266 266 264 261 261 262 265 266 267 269 270 271 271 271 272 272 272 272 272 272 271 270 269 269 268 268 269 269 269 269 269 269 268 268 269 269 269 269 269 269 269 269 269 269 270 270 271 271 271 271 272 273 273 274 275 276 276 275 274 273 273 273 273
267 267 267 266 264 263 263 265 267 268 270 271 272 272 272 272 272 272 272 272 272 269 269 269 269 268 268 268 268 267 267 267 267 266 266 266 267 267 267 267 267 266 266 268 268 269 269 269 270 270 271 271 272 272 273 275 275 275 274 274 274 274 274
267 267 268 268 268 268 266 266 267 269 270 271 271 271 271 271 271 271 271 271 269 268 268 268 268 267 266 266 266 266 265 265 265 264 264 264 265 265 264 263 261 261 264 266 267 267 268 268 268 269 269 270 270 270 271 273 274 275 275 274 274 274 275
268 268 268 269 270 270 270 270 270 270 271 271 271 271 270 270 269 270 270 268 266 267 266 266 266 266 265 265 265 265 264 264 264 263 262 262 262 262 261 260 260 263 265 265 265 266 266 266 267 268 268 269 269 269 270 270 271 273 274 274 274 274 275
263 266 268 267 268 270 271 271 271 270 270 270 270 270 270 269 267 265 265 265 264 264 265 265 265 265 264 264 263 263 263 263 262 263 262 261 261 261 261 261 262 264 264 264 264 265 265 265 265 266 266 267 267 268 269 269 270 270 272 273 274 275 275
262 261 264 267 268 269 270 271 271 270 269 270 269 268 268 265 265 264 263 263 263 263 262 262 263 263 264 264 264 263 262 262 262 262 262 261 260 260 260 261 262 262 262 261 263 264 263 263 263 264 265 266 266 266 267 268 268 269 270 270 271 272 273
Wind_Speed
12 12 12 12 12 13 12 12 12 11 11 12 11 11 10 10 10 11 10 9 11 10 10 10 11 12 11 11 10 10 9 8 8 7 7 8 8 8 8 9 10 11 11 9 9 9 8 9 10 10 8 9 8 7 5 7 7 7 6 5 5 6 7
11 11 12 12 13 13 13 13 13 12 11 12 12 12 9 10 11 11 11 10 11 11 10 11 12 12 12 11 11 11 11 9 9 9 9 9 9 9 8 9 9 10 10 10 9 9 9 9 8 10 9 8 9 9 7 8 7 6 6 5 6 5 5
11 11 12 12 12 13 13 13 12 12 12 11 12 12 11 10 11 11 11 11 11 11 10 12 12 12 11 10 12 12 11 11 10 10 10 10 9 10 9 10 10 9 10 10 9 9 9 8 8 8 10 10 9 9 9 9 7 5 5 7 6 5 4
12 12 12 13 13 13 13 13 13 12 12 12 12 11 11 11 11 10 10 10 11 12 11 12 12 12 12 12 12 12 11 11 11 10 10 10 10 10 10 10 10 11 10 9 10 8 8 9 9 9 9 9 9 9 9 8 8 8 8 5 5 6 6
12 12 13 13 14 14 14 14 13 13 13 13 12 12 12 11 10 10 10 10 11 12 12 12 13 12 12 12 12 12 11 11 12 11 10 10 10 9 9 9 9 10 10 10 10 9 8 8 9 9 9 8 9 8 8 7 8 6 7 7 7 5 6
11 12 13 14 14 14 14 13 13 14 14 13 13 12 11 10 10 12 11 12 12 13 12 12 12 12 12 13 13 12 11 11 12 11 11 11 10 9 9 9 9 9 10 10 10 10 9 9 9 9 9 9 9 10 9 7 7 7 6 7 6 7 5
13 12 13 14 14 14 14 14 14 14 14 14 13 11 10 10 11 12 11 12 12 13 13 13 13 13 13 13 13 13 12 12 12 11 12 11 11 10 9 9 9 9 9 10 10 9 10 10 10 10 10 8 9 10 10 9 8 8 7 7 8 8 6
13 12 12 13 13 13 13 13 13 14 14 12 11 10 11 12 12 12 11 12 12 12 12 13 13 13 13 13 13 13 12 12 11 10 11 11 10 10 10 10 9 9 9 9 9 9 9 8 9 9 10 10 10 9 10 10 8 9 8 7 6 6 6
11 12 12 13 13 13 12 13 12 13 12 12 12 12 13 12 12 11 11 12 12 12 12 13 13 13 13 14 16 18 16 15 14 10 10 10 11 11 10 10 9 9 8 8 9 9 8 9 9 10 9 9 9 9 8 9 9 9 9 8 7 7 7
11 11 12 12 12 12 12 13 12 16 22 18 12 12 11 11 11 11 11 11 11 12 13 13 12 12 18 19 19 20 20 20 19 19 14 10 11 11 11 10 10 9 9 9 9 9 9 9 10 10 10 10 10 10 9 9 9 9 8 8 9 8 7
11 12 11 12 12 13 13 14 14 21 20 21 21 14 12 11 11 11 11 11 11 11 11 12 12 12 14 17 18 17 21 20 21 21 22 21 17 15 12 11 11 10 10 10 10 9 10 10 10 10 9 10 9 8 8 9 9 8 8 8 7 8 5
12 11 11 11 12 13 14 14 17 20 20 21 22 19 12 11 12 11 11 11 11 11 11 11 11 11 11 12 14 13 14 17 20 22 22 23 23 22 22 19 14 11 10 11 10 11 12 10 10 9 8 8 8 8 8 7 7 8 7 8 9 7 6
11 11 11 11 12 13 15 14 19 21 22 22 22 22 19 11 11 12 11 12 12 12 11 10 10 10 10 10 18 15 13 12 14 19 23 22 23 24 25 25 25 22 13 10 13 12 12 12 11 10 10 10 8 7 6 7 6 7 7 8 8 8 6
12 11 11 11 10 12 11 11 16 21 22 22 22 21 19 14 11 11 12 13 12 12 13 13 12 10 11 11 12 12 13 14 13 12 13 15 15 15 19 24 26 27 27 19 12 12 13 11 10 10 8 7 7 7 8 8 8 7 7 7 7 8 8
11 11 10 9 9 9 10 8 18 21 23 22 22 22 19 13 14 11 10 12 14 14 14 14 13 13 12 11 11 11 14 14 14 13 12 12 13 14 13 14 15 15 15 17 14 13 12 10 10 11 9 6 8 10 9 8 8 8 8 7 8 8 6
9 10 9 9 9 9 10 9 19 21 22 23 22 22 14 13 13 13 13 13 12 12 12 12 13 12 12 12 12 15 20 18 13 13 13 12 12 12 12 13 15 18 17 15 15 15 12 11 11 12 10 10 9 9 9 8 8 7 7 7 7 6 7
11 11 9 10 11 11 13 12 17 21 23 22 23 18 12 12 11 12 12 13 13 13 13 13 13 13 12 12 12 15 18 19 19 12 13 13 13 11 11 11 12 18 22 23 24 24 23 24 24 24 24 21 20 14 9 7 7 9 8 7 7 7 6
11 9 8 9 12 13 12 12 14 19 21 22 23 19 13 11 11 12 12 12 13 12 12 14 21 17 13 13 13 17 19 20 19 12 12 12 13 15 11 12 9 7 12 21 23 25 25 23 23 25 25 24 23 22 15 8 10 9 7 8 8 8 7
10 10 10 11 12 14 14 12 13 18 20 21 21 17 13 12 11 12 12 11 11 12 12 12 15 22 19 15 15 20 19 22 20 12 11 12 11 11 14 13 10 10 10 9 9 11 12 14 18 15 15 16 23 23 20 13 11 8 8 8 8 8 7
10 11 10 9 10 10 12 12 11 13 19 19 20 21 13 10 11 12 11 11 10 10 11 12 11 14 21 24 23 21 22 20 14 8 8 10 9 11 12 10 9 10 9 9 10 9 9 11 10 10 9 10 13 16 15 13 12 11 9 9 8 7 7
9 9 9 8 8 8 9 10 11 13 18 18 20 21 20 12 12 11 10 10 11 11 11 10 11 10 16 21 22 23 23 15 11 10 7 7 9 10 12 10 9 11 15 11 11 11 9 9 8 9 9 10 9 9 11 13 13 11 12 10 9 8 8
8 7 7 7 8 9 10 11 15 12 15 18 20 21 23 14 12 13 11 11 11 11 11 10 10 10 12 16 15 15 14 13 12 11 7 8 11 14 16 13 11 10 9 10 9 8 8 8 8 8 8 9 10 11 11 11 12 12 11 12 11 10 9
7 7 7 7 8 8 9 10 10 17 14 16 19 21 21 23 16 18 14 11 11 10 10 10 10 10 12 12 14 14 14 13 13 11 8 11 13 13 14 12 9 10 9 9 8 8 7 7 8 8 8 9 9 10 10 10 11 10 11 13 13 12 12
8 7 8 8 8 8 8 9 9 13 18 16 20 21 22 22 22 21 14 12 10 10 10 10 9 9 11 12 13 14 13 13 12 9 11 11 12 12 9 4 3 2 3 4 6 7 7 8 8 7 8 9 9 9 9 9 8 10 11 10 11 12 12
7 8 8 8 8 9 9 9 9 9 12 18 20 21 21 21 22 22 22 15 12 12 10 11 14 13 13 13 13 14 13 12 13 14 14 13 14 8 5 4 3 3 3 4 4 5 7 8 8 9 9 9 8 8 7 8 7 8 9 9 8 8 9
8 7 7 8 8 9 9 8 7 8 8 9 13 15 19 21 20 20 22 21 14 16 17 15 13 13 13 12 12 10 9 9 8 10 11 13 10 5 5 5 5 5 4 6 7 7 7 7 7 7 8 7 7 7 8 7 7 7 8 7 7 6 6
8 7 7 8 8 8 7 7 7 7 7 7 7 7 9 11 13 16 13 9 7 9 10 11 9 7 8 7 10 11 9 9 9 8 4 3 3 3 4 4 5 5 5 5 6 7 6 6 6 6 5 6 7 8 7 7 7 7 7 7 8 8 8
8 9 9 8 7 7 7 7 7 7 7 7 7 7 7 6 6 5 5 6 5 5 5 4 5 5 5 6 6 7 7 7 7 7 6 5 3 3 2 2 3 3 4 5 6 6 5 5 5 6 6 6 6 7 7 8 8 8 7 7 7 7 8
9 9 9 8 8 7 6 6 7 7 8 7 9 9 8 7 6 6 5 6 7 5 4 5 6 7 8 8 7 6 6 6 6 5 5 4 4 4 3 3 4 4 5 5 5 6 7 7 6 7 6 7 7 7 7 8 7 7 7 7 7 8 7
7 6 6 7 8 8 7 6 5 7 11 12 13 13 11 8 8 8 6 7 11 8 6 7 7 7 8 8 8 8 7 6 6 7 6 5 5 2 2 3 3 3 4 2 3 4 5 6 7 7 6 6 7 8 8 8 9 7 7 7 8 8 8
18 16 14 10 8 9 15 13 11 9 9 13 13 13 13 13 11 10 11 12 8 8 8 7 7 7 7 6 6 7 7 6 6 4 5 4 4 3 3 3 4 3 3 3 4 4 5 5 6 7 6 6 5 5 7 8 8 7 8 8 8 8 8
18 18 18 18 14 8 5 11 15 14 12 10 13 12 11 11 12 12 12 9 11 7 6 6 6 6 5 5 6 5 4 3 3 3 2 2 3 4 3 3 4 2 2 3 3 3 3 4 4 4 5 5 5 4 5 6 8 8 9 8 8 8 8
15 16 17 17 18 18 12 9 9 12 13 13 10 10 8 5 6 6 6 6 4 3 3 4 4 4 4 5 5 4 4 3 3 2 2 1 1 2 2 1 2 1 2 3 2 2 3 3 3 3 3 4 3 3 4 4 6 8 8 8 9 9 9
15 14 15 16 17 18 18 15 11 10 10 10 10 8 10 9 7 11 11 6 2 1 2 3 3 4 5 4 3 3 3 3 3 2 2 2 1 1 1 1 0 2 3 3 2 2 2 2 3 2 3 3 3 3 3 3 3 3 6 8 9 9 8
2 4 3 6 10 18 20 19 14 12 10 7 6 11 9 8 2 1 1 1 2 1 2 3 3 4 3 3 3 3 2 3 3 2 2 2 2 1 1 1 2 3 2 2 1 2 2 2 2 2 2 2 3 3 3 2 2 3 3 3 5 6 7
1 2 7 5 8 6 6 20 16 9 6 8 11 8 6 1 2 3 1 2 0 1 1 1 1 2 3 3 3 2 2 2 3 3 2 2 1 1 1 2 3 2 2 0 1 1 1 2 2 2 2 3 3 3 3 2 2 2 2 2 3 3 3
Wind_Direction
214 217 221 221 222 223 220 220 220 217 215 215 214 214 216 215 215 218 221 220 219 212 217 217 221 224 227 228 231 239 238 234 230 230 235 247 249 246 241 241 246 254 263 264 263 270 276 283 294 291 290 289 290 292 297 298 300 305 312 313 318 319 322
214 217 222 221 223 224 223 223 222 219 216 215 216 216 214 217 219 223 224 222 221 215 221 221 219 220 221 222 223 228 235 239 238 236 239 241 242 245 242 238 243 250 258 266 262 262 265 274 279 280 278 285 292 291 290 289 289 289 291 297 304 301 306
212 215 220 223 223 225 226 225 224 221 219 219 218 217 216 217 219 222 223 222 221 219 220 218 214 216 215 214 216 220 226 230 232 234 233 235 238 241 241 243 242 249 258 262 265 263 266 265 265 267 278 281 278 282 282 281 277 280 282 284 282 280 295
209 213 217 221 223 224 226 226 225 223 222 222 221 220 220 221 221 224 227 227 229 225 220 217 214 213 211 210 212 214 219 222 225 229 229 232 235 240 243 245 245 244 252 260 264 262 262 266 271 272 275 277 279 278 281 277 275 266 267 265 262 276 280
206 211 214 218 222 224 225 226 226 226 224 223 221 221 222 222 224 227 231 233 231 225 221 216 214 211 207 206 207 211 214 216 217 220 227 231 233 235 240 243 245 247 247 253 258 262 262 266 265 269 268 269 274 270 264 259 260 265 257 256 259 266 262
202 206 213 218 222 224 227 227 227 226 225 222 221 222 222 224 225 235 233 233 232 229 222 219 215 211 207 204 205 208 209 211 212 215 222 228 232 235 238 243 245 247 249 250 254 256 260 255 262 263 263 260 260 266 269 272 270 264 263 262 265 257 261
204 207 212 218 221 224 225 226 226 226 224 222 221 222 221 225 233 237 236 231 226 224 226 223 220 217 213 211 208 208 206 204 205 208 216 222 225 231 235 239 242 244 247 249 253 255 254 258 256 259 263 259 256 255 256 260 259 259 249 245 245 253 242
203 209 214 218 221 224 225 225 225 223 221 220 219 217 228 233 234 231 231 231 227 225 223 222 219 216 216 215 212 209 206 200 201 203 212 217 217 222 225 232 237 242 242 246 249 251 254 253 257 257 256 260 254 253 246 245 254 257 255 252 246 239 245
206 209 214 218 221 224 224 226 223 229 222 218 219 226 228 229 228 228 231 231 231 229 226 223 220 218 216 216 214 211 206 203 201 200 208 209 207 211 216 225 234 236 237 240 245 250 249 250 249 250 251 249 247 246 247 238 231 244 251 252 252 247 236
208 211 214 218 222 223 225 232 230 227 223 220 221 220 225 223 227 231 231 231 231 229 226 223 221 220 220 221 221 221 220 218 214 213 214 207 198 202 206 214 221 226 230 233 237 241 243 244 243 246 245 245 250 254 251 252 247 243 244 248 252 254 245
208 213 212 217 221 223 228 232 230 226 223 225 222 221 215 219 225 227 228 229 229 230 225 224 223 224 225 227 227 226 225 223 222 221 220 218 212 204 201 204 211 220 223 229 234 240 239 241 244 241 241 243 249 245 249 245 245 244 241 240 244 247 252
209 209 213 215 218 224 230 230 225 225 229 230 230 229 218 207 215 217 222 225 228 229 230 230 230 227 224 222 220 219 224 225 225 225 225 225 222 219 215 210 207 209 215 220 233 237 237 237 240 244 237 240 238 243 245 249 249 250 252 246 245 252 248
206 209 211 213 215 223 229 230 230 235 233 234 235 236 237 228 202 210 210 216 222 227 230 232 231 230 225 224 222 219 216 217 224 228 229 230 231 229 225 221 217 215 208 208 226 237 242 237 242 238 239 234 235 240 244 249 246 244 245 247 250 245 250
209 207 206 209 208 220 223 226 231 235 237 238 239 240 240 241 230 205 211 213 214 221 230 232 232 230 229 222 218 216 215 215 215 217 223 229 233 234 236 237 232 220 216 209 209 220 233 229 219 232 227 212 206 217 230 237 239 242 241 243 247 248 249
208 209 202 200 203 216 223 218 228 233 239 242 244 245 246 244 243 236 213 211 215 219 227 231 229 229 230 226 219 216 213 212 213 213 213 215 221 226 229 228 235 236 223 218 218 220 224 221 213 224 224 200 190 203 221 225 233 238 242 242 237 246 261
208 206 197 202 203 210 225 224 231 235 240 243 245 247 247 245 243 239 236 232 223 220 223 225 226 226 227 228 226 223 218 214 209 207 209 212 214 219 222 227 228 227 228 216 215 222 220 219 221 221 220 214 208 209 217 228 242 253 258 258 255 253 244
217 218 207 206 212 218 231 236 234 237 242 246 248 247 244 240 239 239 238 234 233 234 234 232 228 227 228 228 229 228 225 224 215 198 203 207 215 216 218 229 225 228 230 232 229 227 223 224 230 237 240 239 229 225 213 213 227 231 226 231 244 249 250
218 210 204 203 217 219 227 234 234 236 242 247 249 246 241 237 235 235 234 234 232 232 233 231 230 227 227 230 233 234 233 234 236 218 194 201 206 211 216 230 225 213 231 239 243 244 244 235 226 227 233 236 236 231 220 203 220 224 216 225 237 251 251
213 218 220 220 222 224 227 234 235 238 245 247 247 243 236 232 231 231 229 228 227 225 230 231 230 228 226 227 231 235 239 244 243 229 186 200 198 208 216 230 218 213 218 221 231 245 247 253 250 240 227 228 233 233 220 210 219 220 215 222 229 237 249
218 216 220 219 218 221 227 232 235 237 243 247 245 238 229 227 225 224 226 226 228 226 227 230 230 228 227 228 232 234 237 236 222 206 189 192 198 205 222 225 214 206 205 207 210 228 228 234 236 242 244 234 223 224 222 214 209 211 214 219 224 227 233
207 212 214 210 210 216 223 227 236 242 243 243 243 240 234 224 225 225 222 222 223 227 229 226 226 228 224 225 232 233 224 220 225 223 218 193 197 210 223 220 224 224 219 220 215 221 226 234 230 228 231 235 234 223 215 216 213 201 207 214 221 223 231
198 200 209 216 220 226 231 232 233 241 243 242 240 237 232 227 224 220 219 221 221 222 225 227 224 216 216 219 228 223 218 226 231 235 233 237 238 233 233 230 229 231 222 212 217 219 215 216 218 218 218 223 227 227 225 220 220 215 200 207 218 219 223
191 202 213 221 227 230 232 233 235 235 237 239 243 243 240 233 228 224 221 223 224 222 225 226 221 217 212 207 217 225 229 230 234 233 237 243 253 259 262 262 249 232 217 199 198 201 210 213 212 214 216 213 217 223 218 219 220 221 212 209 213 218 224
197 207 217 221 232 233 236 235 235 239 239 240 241 242 240 235 228 222 223 224 226 224 223 221 219 217 211 215 220 224 227 233 237 244 244 248 254 264 262 225 208 179 196 187 186 197 209 221 218 215 220 219 221 222 215 213 214 218 213 208 210 213 218
198 207 217 223 231 239 245 241 235 236 237 236 237 238 237 233 228 225 220 222 227 227 224 224 224 218 217 222 227 231 237 243 247 248 252 250 256 226 198 208 215 216 221 221 223 219 221 231 226 223 227 225 222 217 213 214 216 222 227 226 218 211 206
207 213 216 226 235 242 246 239 236 235 232 233 231 232 233 230 226 224 223 224 230 229 218 213 206 208 214 221 227 231 234 236 239 241 245 249 230 187 216 218 239 240 242 254 256 257 256 252 249 239 233 221 209 197 197 198 206 206 215 215 221 223 216
209 213 216 225 234 239 237 234 237 233 227 217 222 223 224 228 231 228 223 212 193 189 195 204 211 217 221 222 225 227 230 231 236 242 229 142 182 224 218 227 229 241 245 247 249 254 255 254 255 252 228 190 184 199 205 198 200 203 207 200 209 215 225
209 216 219 224 232 232 230 235 231 224 217 211 206 207 205 207 191 185 191 195 189 182 184 194 204 212 216 223 227 228 232 234 234 231 227 225 201 197 210 214 236 243 254 253 252 252 261 269 265 258 228 206 205 210 206 195 197 201 203 197 190 198 216
218 224 228 233 232 223 225 224 225 221 215 213 202 198 194 193 196 196 204 209 203 182 177 203 213 217 221 221 217 216 223 220 199 189 183 170 192 201 203 228 239 243 242 235 226 237 241 246 248 249 248 230 219 212 202 189 193 201 203 196 197 207 216
206 202 205 227 234 230 227 218 217 219 209 208 202 201 204 209 201 200 210 210 202 205 209 206 211 212 213 213 214 212 199 191 193 189 189 186 194 182 204 228 215 222 225 203 226 235 241 245 250 251 251 257 245 234 225 205 192 199 199 197 200 211 219
229 225 221 226 239 234 236 246 260 255 217 198 199 199 204 207 212 211 214 209 201 208 214 211 205 208 207 208 207 205 196 181 186 190 194 189 201 201 197 190 207 194 214 230 227 233 239 245 247 252 254 248 258 260 239 223 205 205 198 204 206 212 219
239 238 230 219 222 232 242 240 246 253 253 214 202 206 208 215 221 229 227 224 218 208 193 188 204 201 200 200 196 183 155 137 152 134 147 148 188 202 195 206 193 166 222 219 221 223 229 230 236 242 246 253 255 260 273 238 207 202 205 204 208 214 216
239 240 234 226 220 221 224 225 224 236 248 243 208 207 212 184 145 117 119 121 153 193 187 198 205 198 184 183 178 160 133 129 118 126 129 171 179 172 151 116 55 5 232 217 216 229 230 239 246 252 258 252 253 259 250 267 240 212 200 202 210 218 219
241 231 228 228 223 219 218 219 221 230 224 199 206 209 151 131 99 71 64 70 90 151 176 165 166 163 167 161 135 131 138 136 139 129 140 146 137 131 103 87 181 205 210 207 212 226 232 240 243 252 258 254 252 244 261 258 270 251 208 208 216 218 218
274 315 276 221 231 228 221 216 211 215 203 204 153 115 113 99 99 39 84 84 78 170 203 198 196 182 170 141 144 139 143 130 123 171 152 159 144 135 140 145 188 197 194 215 216 226 232 240 252 253 260 271 268 261 242 247 258 258 256 221 210 223 226
172 311 328 21 59 61 223 209 195 177 161 134 97 84 86 121 220 232 210 229 234 221 142 158 159 197 198 196 195 169 129 135 169 186 177 162 140 136 140 165 191 198 195 112 237 235 242 260 238 247 258 253 253 247 255 266 272 276 269 278 247 232 237